Regional Weather Roundup
Issued by NWS

Home | Current Version | Previous Version | Text Only | Print | Product List | Glossary Off
Versions: 1 2 3 4 5 6 7 8 9 10 11 12 13 14 15 16 17 18 19 20 21 22 23 24 25 26 27 28 29 30 31 32 33 34 35 36 37 38 39 40 41 42 43 44 45 46 47 48 49 50

000
ASUS43 KMKX 170621
RWRWI

WISCONSIN REGIONAL WEATHER ROUNDUP
NATIONAL WEATHER SERVICE MILWAUKEE/SULLIVAN WI
1200 AM CST FRI NOV 17 2017

NOTE: "FAIR" INDICATES FEW OR NO CLOUDS BELOW 12,000 FEET WITH NO
SIGNIFICANT WEATHER AND/OR OBSTRUCTIONS TO VISIBILITY.

WIZ001-002-006>008-014>016-023>028-170700-
NORTHWEST WISCONSIN

CITY           SKY/WX    TMP DP  RH WIND       PRES   REMARKS
SUPERIOR ARPT  CLOUDY    31  26  82 E7        29.98F WCI  24
6HR MIN TEMP:  29; 6HR MAX TEMP:  31;

ASHLAND        CLOUDY    32  24  72 S8        30.03F WCI  25
6HR MIN TEMP:  29; 6HR MAX TEMP:  32; 6HR PCP: TRACE;

HAYWARD        CLOUDY    32  24  72 S15G21    30.00F WCI  22
6HR MIN TEMP:  29; 6HR MAX TEMP:  32;

SIREN          CLOUDY    33  26  74 SE14G20   29.96F WCI  23
6HR MIN TEMP:  30; 6HR MAX TEMP:  33;

CUMBERLAND     CLOUDY    32  25  74 SE18      29.99F WCI  20
RICE LAKE      CLOUDY    33  26  77 SE15G22   30.03F WCI  22
6HR MIN TEMP:  30; 6HR MAX TEMP:  33;

CHETEK         CLOUDY    32  26  77 SE10      30.04S WCI  24
6HR MIN TEMP:  30; 6HR MAX TEMP:  32;

LADYSMITH      CLOUDY    33  26  75 SE10G18   30.05F WCI  25
6HR MIN TEMP:  30; 6HR MAX TEMP:  33;

EAU CLAIRE     CLOUDY    33  25  72 SE13      30.05S WCI  24
6HR MIN TEMP:  31; 6HR MAX TEMP:  33;

MENOMONIE      CLOUDY    33  28  80 SE10      30.03F WCI  25
6HR MIN TEMP:  31; 6HR MAX TEMP:  33;

NEW RICHMOND   CLOUDY    32  26  78 SE8       30.00F WCI  25
6HR MIN TEMP:  31; 6HR MAX TEMP:  32;

OSCEOLA        CLOUDY    33  27  78 SE12      30.01S WCI  25
6HR MIN TEMP:  32; 6HR MAX TEMP:  33;

$$

WIZ003>005-009-010-017-018-170700-
NORTH CENTRAL WISCONSIN

CITY           SKY/WX    TMP DP  RH WIND       PRES   REMARKS
MANITOWISH WTR FLURRIES  27  25  94 SE12G18   30.08S WCI  17
6HR MIN TEMP:  25; 6HR MAX TEMP:  27;

ARBOR VITAE    CLOUDY    29  25  85 S10G16    30.10S WCI  20
6HR MIN TEMP:  28; 6HR MAX TEMP:  29;

WOODRUFF       CLOUDY    29  25  85 S10G16    30.10S WCI  20
6HR MIN TEMP:  28; 6HR MAX TEMP:  29;

RHINELANDER    CLOUDY    27  23  85 SE7       30.11F WCI  19
6HR MIN TEMP:  25; 6HR MAX TEMP:  27;

EAGLE RIVER    CLOUDY    26  21  80 SE10G17   30.11S WCI  17
6HR MIN TEMP:  26; 6HR MAX TEMP:  26;

LAND O LAKES   CLOUDY    26  23  85 S8G16     30.12S WCI  18
6HR MIN TEMP:  25; 6HR MAX TEMP:  26;

PHILLIPS       CLOUDY    29  25  84 SE12G17   30.07S WCI  19
6HR MIN TEMP:  27; 6HR MAX TEMP:  29;

TOMAHAWK       CLOUDY    28  23  82 SE6       30.11F WCI  21
6HR MIN TEMP:  25; 6HR MAX TEMP:  28;

MEDFORD        CLOUDY    29  25  83 SE10G16   30.08R WCI  20
6HR MIN TEMP:  27; 6HR MAX TEMP:  29;

MERRILL        CLOUDY    29  25  84 SE8       30.12S WCI  21
6HR MIN TEMP:  28; 6HR MAX TEMP:  29;

$$

WIZ029-030-035-036-043>047-170700-
CENTRAL WISCONSIN

CITY           SKY/WX    TMP DP  RH WIND       PRES   REMARKS
WAUSAU         CLOUDY    29  24  82 SE13      30.11F WCI  19
6HR MIN TEMP:  28; 6HR MAX TEMP:  29;

MOSINEE        NOT AVBL
MARSHFIELD     CLOUDY    31  24  75 SE13      30.09S WCI  21
6HR MIN TEMP:  29; 6HR MAX TEMP:  32;

STEVENS POINT  CLOUDY    29  25  84 SE10G16   30.13F WCI  20
6HR MIN TEMP:  28; 6HR MAX TEMP:  29;

WAUPACA        CLOUDY    34  28  77 SE7       30.19F WCI  28
6HR MIN TEMP:  32; 6HR MAX TEMP:  34;

WAUTOMA        CLOUDY    33  26  75 SE15      30.16F WCI  23
6HR MIN TEMP:  31; 6HR MAX TEMP:  33;

WISC RAPIDS    CLOUDY    32  25  75 SE9G18    30.14F WCI  24
6HR MIN TEMP:  28; 6HR MAX TEMP:  32;

CAMP DOUGLAS   CLOUDY    33  27  78 S12G18    30.12R WCI  25
6HR MIN TEMP:  26; 6HR MAX TEMP:  33;

$$

WIZ011>013-019>022-031-037>040-048>050-170700-
NORTHEAST WISCONSIN

CITY           SKY/WX    TMP DP  RH WIND       PRES   REMARKS
ANTIGO         CLOUDY    27  24  89 SE14      30.15F WCI  15
6HR MIN TEMP:  26; 6HR MAX TEMP:  27;

SHAWANO        CLOUDY    32  26  79 SE3       30.20F
6HR MIN TEMP:  28; 6HR MAX TEMP:  32;

OCONTO         CLOUDY    31  26  81 CALM      30.22S
6HR MIN TEMP:  30; 6HR MAX TEMP:  32;

STURGEON BAY   CLOUDY    30  25  81 NW3       30.22R
6HR MIN TEMP:  29; 6HR MAX TEMP:  31;

GREEN BAY      CLOUDY    32  27  81 CALM      30.22R
6HR MIN TEMP:  32; 6HR MAX TEMP:  33;

MANITOWOC      CLOUDY    32  28  85 NW5       30.22R WCI  27
6HR MIN TEMP:  32; 6HR MAX TEMP:  32; 6HR PCP: TRACE;

APPLETON       CLOUDY    32  27  80 S6        30.19R WCI  26
CLINTONVILLE   CLOUDY    30  25  80 SE5       30.21S WCI  25
OSHKOSH        CLOUDY    33  27  78 S3        30.20S
6HR MIN TEMP:  31; 6HR MAX TEMP:  34;

$$

WIZ032>034-041-042-053>061-170700-
SOUTHWEST WISCONSIN

CITY           SKY/WX    TMP DP  RH WIND       PRES   REMARKS
LA CROSSE      CLOUDY    36  28  73 SE18G28   30.07F WCI  26
6HR MIN TEMP:  35; 6HR MAX TEMP:  36;

SPARTA         CLOUDY    33  28  82 SE9G16    30.10S WCI  26
6HR MIN TEMP:  29; 6HR MAX TEMP:  33;

VIROQUA        CLOUDY    32  30  92 S16G24    30.07S WCI  21
6HR MIN TEMP:  32; 6HR MAX TEMP:  32;

BOSCOBEL       CLOUDY    35  27  72 S6        30.15S WCI  30
6HR MIN TEMP:  35; 6HR MAX TEMP:  37;

PRAIRIE DU CHI CLOUDY    34  27  75 SE8       30.12R WCI  27
6HR MIN TEMP:  34; 6HR MAX TEMP:  35;

PLATTEVILLE    CLOUDY    33  31  91 SE16      30.11F WCI  22
6HR MIN TEMP:  33; 6HR MAX TEMP:  33;

$$

WIZ056-057-062-063-064-067-068-170700-
SOUTH CENTRAL WISCONSIN

CITY           SKY/WX    TMP DP  RH WIND       PRES   REMARKS
REEDSBURG      CLOUDY    32  28  82 SE9       30.14S WCI  25
6HR MIN TEMP:  29; 6HR MAX TEMP:  32;

BARABOO/DELLS  CLOUDY    32  27  81 S14       30.13F WCI  22
6HR MIN TEMP:  28; 6HR MAX TEMP:  32;

LONE ROCK      CLOUDY    34  29  82 SE13      30.14F WCI  25
6HR MIN TEMP:  33; 6HR MAX TEMP:  35;

MINERAL POINT  CLOUDY    34  32  93 SE13G18   30.12F WCI  25
MADISON        CLOUDY    33  27  78 S12       30.17R WCI  24
6HR MIN TEMP:  31; 6HR MAX TEMP:  34;

MIDDLETON      CLOUDY    35  29  79 SE10      30.17F WCI  27
6HR MIN TEMP:  33; 6HR MAX TEMP:  35;

WATERTOWN      CLOUDY    33  29  88 S5        30.18F WCI  28
6HR MIN TEMP:  29; 6HR MAX TEMP:  33;

MONROE         CLOUDY    32  28  86 SE7       30.16S WCI  26
JANESVILLE     CLOUDY    34  30  86 SE7       30.18S WCI  28
$$

WIZ051-052-058>065-066-070>072-170700-
SOUTHEAST WISCONSIN

CITY           SKY/WX    TMP DP  RH WIND       PRES   REMARKS
MILWAUKEE      CLOUDY    37  32  82 SW7       30.21S WCI  32
6HR MIN TEMP:  36; 6HR MAX TEMP:  38;

WAUKESHA       CLOUDY    32  28  86 CALM      30.21R
MILWAUKEE/TIMM CLOUDY    34  28  80 SW5       30.22R WCI  30
RACINE         CLOUDY    38  33  82 SW6       30.22S WCI  33
6HR MIN TEMP:  36; 6HR MAX TEMP:  38;

BURLINGTON     CLOUDY    36  33  90 CALM      30.21S
6HR MIN TEMP:  35; 6HR MAX TEMP:  37;

KENOSHA        CLOUDY    35  29  78 W6        30.21R WCI  30
6HR MIN TEMP:  34; 6HR MAX TEMP:  36;

FOND DU LAC    CLOUDY    33  27  78 S5        30.21R WCI  29
6HR MIN TEMP:  29; 6HR MAX TEMP:  34;

SHEBOYGAN      CLOUDY    32  30  92 NW3       30.21R
6HR MIN TEMP:  31; 6HR MAX TEMP:  33;

WEST BEND      CLOUDY    32  32 100 CALM      30.21R
JUNEAU         CLOUDY    32  27  83 SE5       30.20F WCI  27
6HR MIN TEMP:  30; 6HR MAX TEMP:  32;

$$

LSZ147-162-170700-
LAKE SUPERIOR

STATION/POSITION TIME  TEMP    WIND        PRES    WAVE
                       AIR SEA DIR/SP/G            HT/PER
                 (UTC) (F)     (DEG/KT/KT) (MB)    (FT/S)
DEVILS ISLAND    0600   33     120/ 17/ 22 1017.3F
SAXON HARBOR     0530   32     180/  6/ 13 1017.3F
$$

LMZ867-665-643>646-170700-
LAKE MICHIGAN

STATION/POSITION TIME  TEMP    WIND        PRES    WAVE
                       AIR SEA DIR/SP/G            HT/PER




USA.gov is the U.S. government's official web portal to all federal, state and local government web resources and services.